Regional Weather Roundup
Issued by NWS Cleveland, OH

Home | Current Version | Previous Version | Graphics & Text | Print | Product List | Glossary On
Versions: 1 2 3 4 5 6 7 8 9 10 11 12 13 14 15 16 17 18 19 20 21 22 23 24 25 26 27 28 29 30 31 32 33 34 35 36 37 38 39 40 41 42 43 44 45 46 47 48 49 50
737
ASUS41 KCLE 300910
RWRCLE
OHIO REGIONAL WEATHER ROUNDUP
NATIONAL WEATHER SERVICE WILMINGTON, OH
500 AM EDT SUN APR 30 2017

NOTE: "FAIR" INDICATES FEW OR NO CLOUDS BELOW 12,000 FEET WITH NO
SIGNIFICANT WEATHER AND/OR OBSTRUCTIONS TO VISIBILITY.

OHZ001>008-015>018-024>027-034-035-043-044-301000-
   NORTHWEST OHIO

CITY           SKY/WX    TMP DP  RH WIND       PRES   REMARKS
DEFIANCE       CLOUDY    45  42  89 E13       29.98F
FINDLAY        CLOUDY    47  43  86 E13       29.96S
TOLEDO EXPRESS CLOUDY    47  44  90 E23       29.98F
TOLEDO EXEC    MOCLDY    48  45  89 E16G25    29.99F
LIMA           CLOUDY    47  46  97 E10       29.96F
$$

OHZ009>014-019>023-028>033-038-089-301000-
   NORTHEAST OHIO

CITY           SKY/WX    TMP DP  RH WIND       PRES   REMARKS
CLE-HOPKINS    MOCLDY    52  45  77 NE10      30.05F
CLE-LAKEFRONT  MOCLDY    50  46  86 NE22G28   30.03R
CUY CO. ARPT   NOT AVBL
LORAIN-ELYRIA  CLOUDY    49  43  80 E10       30.04F
ASHTABULA      MOCLDY    49  46  90 CALM      30.05S
AKRON-CANTON   LGT RAIN  56  52  86 SE10      30.02R
WOOSTER        CLOUDY    54  52  93 SE5       30.02R
MANSFIELD      CLOUDY    52  52 100 NE6       30.00F FOG
YOUNGSTOWN     MOCLDY    53  51  93 E9        30.03F
$$

OHZ042-051>053-060>062-070>072-077>081-301000-
  SOUTHWEST OHIO

CITY           SKY/WX    TMP DP  RH WIND       PRES   REMARKS
CINC-COVINGTON FAIR      70  64  81 S5        29.93R
CINC-LUNKEN    FAIR      64  64 100 N3        29.93R FOG
HAMILTON       FAIR      59  59 100 CALM      29.94F FOG
DAYTON         CLOUDY    54  54 100 E3        29.95F
WRIGHT-PAT AFB CLOUDY    56  56 100 E5        29.95S
DAYTON GENERAL CLOUDY    57  56  96 E5        29.94S FOG
WILMINGTON     FOG       60  60 100 NE5       29.95F VSB 1
$$

OHZ036-037-039>041-045>050-054>059-063>069-073>076-082>088-301000-
  CENTRAL AND SOUTHEAST OHIO

CITY           SKY/WX    TMP DP  RH WIND       PRES   REMARKS
COLUMBUS       CLOUDY    59  58  96 NE5       29.97F
OSU AIRPORT    CLOUDY    56  56 100 NE8       29.97F FOG
BOLTON FIELD   CLOUDY    57  57 100 NE5       29.98F FOG
RICKENBACK AFB CLOUDY    59  59 100 NE7       29.96S FOG
NEWARK         CLOUDY    58  57  97 NE3       29.98F FOG
MARION         CLOUDY    50  47  89 NE7       29.99F FOG
LANCASTER      CLOUDY    63  60  90 SE8       29.97F FOG
ZANESVILLE     CLOUDY    60  58  92 E5        30.00S FOG
NEW PHILLY     MOCLDY    59  57  93 CALM      30.03R
$$




USA.gov is the U.S. government's official web portal to all federal, state and local government web resources and services.